1KUNS-PF (43466 NORAD) Tracking and Keplerian Element Data

This shows tracking and keplerian element data for the satellite.

Feedback or suggestion? Click here.




ElementValue
Catalog43466
Name1KUNS-PF
Epoch Orbit2912
Epoch Day318.53318316
Epoch Year2018
RAAN345.4368
Inclination51.6402
Eccentricity0.0001295
Argument of Perigee27.28
Mean Anonmoly332.8261
Mean Motion15.59155372
Decay Rate0.0001073
L11 43466U 98067NP 18318.53318316 .00010730 00000-0 14064-3 0 9993
L22 43466 51.6402 345.4368 0001295 27.2800 332.8261 15.59155372 29124

Live tracking and technical data element details for 1KUNS-PF (NORAD 43466). 1KUNS-PF can be tracked NOW for your location showing map with azimuth and elevation plus other details from your city location.

Track the satellite on the map from your city or location and see movement details for azimuth, elevation, latitude, longitude, range, height, and movement on the map or in text.







IsCatalogInMostPopularTable: catalog: 43466, numindb: 56
Update: records affected: 1



GetName: 43466 1KUNS-PF

Hit Count: updated at: Fri, 16 Nov 2018 05:00:03 GMT